Other Public Products
Issued by NWS Charleston, SC

Current Version | Previous Version | Graphics & Text | Print | Product List | Glossary On
Versions: 1 2 3 4 5 6 7 8 9 10 11 12 13 14 15 16 17 18 19 20 21 22 23 24 25 26 27 28 29 30 31 32 33 34 35 36 37 38 39 40 41 42 43 44 45 46 47 48 49 50
111
FPUS82 KCHS 222311
OPUCHS

TEST...KCHS/KSAV Gateway Observations...TEST
National Weather Service Charleston SC
600 PM EST WED FEB 22 2017

NOTE: "fair" indicates few or no clouds below 12,000 feet with no
significant weather and/or obstructions to visibility.

SCZ050-WAZ558-NCZ071-TXZ119-213-PAZ071-DCZ001-FLZ074-172-MI076-
NYZ176-178-MAZ016-IL014-TNZ027-NJZ106-GAZ044-MD014-230000-
...Gateway Observations for Charleston International...

CITY           SKY/WX    TMP DP  RH WIND       PRES   REMARKS
Chas Airport   CLOUDY    68  58  70 E13       29.87F
Seattle        MOSUNNY   45  32  60 S5        30.17F
Charlotte      CLOUDY    64  53  67 N7        29.93R
Dallas DFW     MOSUNNY   83  43  24 S14       29.72S
Dallas Love    MOSUNNY   83  43  24 S10G18    29.74R
Philladelphia  MOCLDY    54  42  64 SW7       29.93R
Wash National  MOCLDY    56  48  74 S8        29.91S
Baltimore      MOCLDY    54  46  74 SE5       29.90F
Miami          MOCLDY    68  62  81 VRB6      29.64F
Detroit        CLOUDY    61  54  77 S9        29.75S
Newark         MOCLDY    55  40  56 SE6       29.90S
Laguardia      MOCLDY    54  41  61 S8        29.90F
J F K          CLOUDY    47  44  90 S6        29.93S
Boston Logan   PTCLDY    43  37  79 NE8       29.90S
Ft. Lauderdale MOCLDY    67  63  87 S8        29.62F
Chicago O`Hare CLEAR     67  51  56 S14       29.62F
Chicago Midway PTCLDY    67  53  61 S17G24    29.63F
Houston Bush   SUNNY     83  44  25 CALM      29.79S
Houston Hobby  SUNNY     81  45  28 SW8       29.78F
Nashville      MOCLDY    67  56  67 S6        29.85R
Atlanta        CLOUDY    68  58  70 E13       29.85R

$$

GAZ044-118-TXZ119-213-NCZ071-DCZ001-MDZ014-506-PAZ021-071-NJZ106-
NYZ176-178-MAZ106-OHZ011-021-055-MIZ076-KYZ091-ILZ014-INZ047-
MNZ060-ONZ431-230000-
...Gateway Observations for Savannah International...

CITY           SKY/WX    TMP DP  RH WIND       PRES   REMARKS
Savannah Arpt  CLOUDY    67  60  78 E10       29.84S
Atlanta        CLOUDY    68  58  70 E13       29.85R
Charlotte      CLOUDY    64  53  67 N7        29.93R
Dallas DFW     MOSUNNY   83  43  24 S14       29.72S
Houston Bush   SUNNY     83  44  25 CALM      29.79S
Wash National  MOCLDY    56  48  74 S8        29.91S
Wash Dulles    MOCLDY    59  47  64 SE6       29.90R
Baltimore      MOCLDY    54  46  74 SE5       29.90F
Philadelphia   MOCLDY    54  42  64 SW7       29.93R
Newark         MOCLDY    55  40  56 SE6       29.90S
Laguardia      MOCLDY    54  41  61 S8        29.90F
J F K          CLOUDY    47  44  90 S6        29.93S
Boston         PTCLDY    43  37  79 NE8       29.90S
Pittsburg      CLOUDY    63  49  60 W5        29.83S
Akron          CLOUDY    58  51  78 S9        29.83S
Cleveland      CLOUDY    61  52  72 S10       29.82S
Cincinnati     MOCLDY    64  57  78 CALM      29.80R
Columbus       CLOUDY    57  55  92 S8        29.82S
Detroit        CLOUDY    61  54  77 S9        29.75S
Chicago O`Hare CLEAR     67  51  56 S14       29.62F
Minneapolis    PTCLDY    54  44  69 NW16      29.57R
Indianapolis   MOCLDY    65  55  70 SW9       29.77R
Toronto Canada CLOUDY    41  39  93 SE6       29.76S FOG

$$




USA.gov is the U.S. government's official web portal to all federal, state and local government web resources and services.